Regional Weather Roundup
Issued by NWS State College, PA

Home | Current Version | Previous Version | Text Only | Print | Product List | Glossary On
Versions: 1 2 3 4 5 6 7 8 9 10 11 12 13 14 15 16 17 18 19 20 21 22 23 24 25 26 27 28 29 30 31 32 33 34 35 36 37 38 39 40 41 42 43 44 45 46 47 48 49 50
000
ASUS41 KCTP 091810
RWRCTP

REGIONAL WEATHER ROUNDUP
NATIONAL WEATHER SERVICE STATE COLLEGE PA
100 PM EST FRI DEC 09 2016

Note: "fair" indicates few or no clouds below 12,000 feet with no
significant weather and/or obstructions to visibility.

* = STATION THAT DOES NOT REPORT PRECIPITATION /E.G. RAIN...SNOW...ETC/
    THUNDER OR FOG.

PAZ002>004-007>009-013>016-020>023-029>032-091900-
WESTERN PENNSYLVANIA

CITY           SKY/WX    TMP DP  RH WIND       PRES   REMARKS
ERIE           PTSUNNY   34  19  54 W17G26    30.28F
MEADVILLE      CLOUDY    24  21  88 W13       30.27S WCI  12
FRANKLIN*        N/A     25  18  74 W14       30.27F WCI  13
NEW CASTLE     CLOUDY    28  20  71 W13       30.33F
BEAVER COUNTY  NOT AVBL
BUTLER*        CLOUDY    27  18  69 W17       30.34F WCI  14
PITTSBURGH INT CLOUDY    27  18  69 W13       30.34F
PITTSBURGH     CLOUDY    26  16  65 W16G22    30.33F WCI  14
INDIANA*       CLOUDY    27  21  80 W14       30.30F HAZE
LATROBE        CLOUDY    25  18  74 W14G25    30.34F WCI  13
WASHINGTON CO* CLOUDY    25  16  68 W15       30.36S WCI  12
$$

PAZ004>006-010>012-017>019-024>028-033>037-041-042-045-046-049>053-091900-
CENTRAL PENNSYLVANIA

CITY           SKY/WX    TMP DP  RH WIND       PRES   REMARKS
BRADFORD       LGT SNOW  24  19  81 W9        30.15S WCI  14
DUBOIS         CLOUDY    26  17  68 W20G26    30.20F WCI  12
CLEARFIELD     CLOUDY    28  18  66 W13G23    30.22S
JOHNSTOWN      CLOUDY    20  17  88 W14G22    30.20F WCI   7
ALTOONA        CLOUDY    27  18  69 W15       30.26S
STATE COLLEGE  FLURRIES  28  18  64 W13G22    30.22S
WILLIAMSPORT   CLOUDY    33  22  63 W12       30.19F
SELINSGROVE    CLOUDY    34  20  56 W14G23    30.22F
FT INDIANTOWN  CLOUDY    34  16  48 W16G23    30.21F
CAPITAL CITY   PTSUNNY   36  16  44 NW18G29   30.25S
HARRISBURG     PTSUNNY   36  20  52 NW23G30   30.24S
YORK           SUNNY     35  18  49 W20G32    30.24F
$$

PAZ038>040-043-044-047-048-054-055-060>062-067>071-091900-
EASTERN PENNSYLVANIA

CITY           SKY/WX    TMP DP  RH WIND       PRES   REMARKS
SCRANTON       CLOUDY    33  16  49 NW10      30.12F
MOUNT POCONO   FLURRIES  26  18  71 NW14G25   30.05R WCI  14
ALLENTOWN      CLOUDY    36  17  46 W15G24    30.16S
QUAKERTOWN*    CLOUDY    34  18  51 W15       30.17S
READING        PTSUNNY   35  16  45 NW20G32   30.19F
LANCASTER      PTSUNNY   36  19  50 NW24G32   30.22S
COATESVILLE    MOCLDY    36  18  48 NW20G31   30.20F
POTTSTOWN      PTSUNNY   34  18  52 NW14G25   30.20F
BLUE BELL      CLOUDY    34  19  55 W9G21     30.18S
DOYLESTOWN     CLOUDY    37  18  46 W15G24    30.15F
WILLOW GROVE   NOT AVBL
NORTH PHILA    CLOUDY    38  18  44 W17G25    30.20S
PHILADELPHIA   PTSUNNY   38  18  44 W20       30.21F
$$




USA.gov is the U.S. government's official web portal to all federal, state and local government web resources and services.